www.pogodaiklimat.ru

Погода и климат >> Архив погоды >> Великобритания >> Абердарон


ПОГОДА в Абердароне

  • Прогноз погоды в Абердароне
  • Монитор погоды в Абердароне

АРХИВ ПОГОДЫ в Абердароне

Время (UTC), дата Ветер
(напр.,м/с)
 
Видим.   Явления Облачность Т
(С)
Тd
(С)
f
(%)
Тe
(С)
Тes
(С)
Комфортность P
(гПа)
Po
(гПа)
Тmin
(С)
Tmax
(С)
R
(мм)
R24
(мм)
S
(см)
19 8.09 ЮЗ 7 55 км н/о +13.7 +10.6 82 +11 +11 1020.0 1008.6
20 8.09 ЮЗ 7 60 км н/о +13.7 +10.6 82 +11 +11 1019.7 1008.2
21 8.09 ЮЗ 8 50 км н/о +13.7 +10.3 80 +11 +11 1019.0 1007.6
22 8.09 ЮЗ 8 40 км н/о +13.7 +10.9 83 +11 +11 1017.9 1006.5
23 8.09 ЮЗ 8 40 км н/о +13.7 +11.3 85 +11 +11 1017.0 1005.5
00 9.09 ЮЗ 9 27 км н/о +13.2 +11.9 92 +10 +10 1016.0 1004.5
01 9.09 ЮЗ 9 2700 м н/о +12.6 +12.6 100 +9 +9 1015.0 1003.5
02 9.09 ЮЗ 10 2800 м н/о +13.1 +13.1 100 +10 +10 1013.8 1002.4
03 9.09 ЮЗ 11
{14}
12 км н/о +13.2 +13.2 100 +10 +10 1012.5 1001.1
04 9.09 ЮЗ 11
{13}
1400 м н/о +13.2 +13.2 100 +10 +10 1011.4 1000.0
05 9.09 ЮЗ 7 4200 м н/о +12.9 +12.9 100 +10 +10 1010.6 999.2
06 9.09 ЮЗ 4 28 км н/о +13.1 +13.1 100 +11 +11 1009.9 998.5 +12.3 14
07 9.09 ЮЗ 4 1900 м н/о +12.9 +12.9 100 +11 +11 1009.7 998.3
08 9.09 З 5 35 км н/о +13.4 +13.4 100 +11 +11 1009.4 998.0
09 9.09 С 6 40 км н/о +13.0 +12.8 99 +10 +10 1009.5 998.1
10 9.09 С 6 50 км н/о +14.3 +13.0 92 +12 +12 1009.5 998.2
11 9.09 С 7 55 км н/о +13.7 +12.1 90 +11 +11 1009.9 998.5
12 9.09 С 8 55 км н/о +13.4 +12.0 91 +11 +11 1010.1 998.8 0.4
13 9.09 С 9 45 км н/о +13.8 +12.1 89 +11 +11 1010.5 999.1
14 9.09 С 11
{14}
35 км н/о +13.9 +11.6 86 +11 +11 1010.8 999.4
15 9.09 С 11
{15}
30 км н/о +13.3 +11.0 86 +10 +10 1011.7 1000.3
16 9.09 С 11
{15}
30 км н/о +13.9 +10.7 81 +11 +11 1011.8 1000.4
17 9.09 С 11
{15}
30 км н/о +13.4 +10.5 83 +10 +10 1012.6 1001.2
18 9.09 С 12
{15}
30 км н/о +13.3 +9.9 80 +10 +10 1013.5 1002.1 +14.7 0.4
19 9.09 С 14
{17}
35 км н/о +13.3 +9.9 80 +10 +10 1013.8 1002.4
20 9.09 С 14
{17}
30 км н/о +13.3 +9.3 77 +10 +10 1014.8 1003.4
21 9.09 С 13
{19}
30 км н/о +13.1 +9.6 79 +9 +9 1015.6 1004.2
22 9.09 С 13
{18}
30 км н/о +13.0 +9.4 79 +9 +9 1016.4 1004.9
23 9.09 С 10
{16}
35 км н/о +12.8 +9.9 83 +9 +9 1017.2 1005.8
00 10.09 С 9
{14}
30 км н/о +12.7 +10.0 84 +9 +9 1017.7 1006.2
01 10.09 С 9
{13}
30 км н/о +12.3 +9.7 84 +9 +9 1018.0 1006.5
02 10.09 С 9
{13}
30 км н/о +12.2 +9.9 86 +9 +9 1018.5 1007.0
03 10.09 С 10
{13}
30 км н/о +12.0 +9.4 84 +8 +8 1018.9 1007.4
04 10.09 С 8 28 км н/о +11.8 +9.3 85 +8 +8 1019.2 1007.6
05 10.09 СЗ 7 25 км н/о +11.9 +10.0 88 +9 +9 1019.9 1008.3
06 10.09 СЗ 7 28 км н/о +11.3 +9.3 87 +8 +8 1020.2 1008.7 +11.3
07 10.09 СЗ 6 28 км н/о +11.6 +9.3 86 +9 +9 1021.1 1009.5
08 10.09 СЗ 6 29 км н/о +12.8 +9.8 82 +10 +10 1021.8 1010.3
09 10.09 СЗ 5 30 км н/о +13.2 +9.9 80 +11 +11 1022.0 1010.5
10 10.09 СЗ 4 35 км н/о +14.0 +10.0 77 +13 +13 1022.2 1010.7
11 10.09 З 4 35 км н/о +14.5 +10.6 77 +13 +13 1021.8 1010.4
12 10.09 З 4 30 км н/о +14.5 +9.9 74 +13 +13 1022.1 1010.6
13 10.09 З 4 28 км н/о +15.1 +9.8 71 +14 +14 1022.0 1010.6
14 10.09 З 5 30 км н/о +14.3 +8.7 69 +13 +13 1022.0 1010.5
15 10.09 ЮЗ 6 35 км н/о +14.3 +8.8 69 +12 +12 1021.5 1010.1
16 10.09 ЮЗ 8 30 км н/о +13.6 +8.1 69 +11 +11 1020.8 1009.3
17 10.09 ЮЗ 10 26 км н/о +13.2 +8.5 73 +10 +10 1020.8 1009.4
18 10.09 ЮЗ 11
{13}
20 км н/о +13.3 +10.1 81 +10 +10 1020.0 1008.5 +15.4
19 10.09 ЮЗ 12
{15}
23 км н/о +13.2 +10.8 85 +10 +10 1019.8 1008.3
20 10.09 ЮЗ 13
{15}
23 км н/о +13.8 +11.4 85 +10 +10 1019.6 1008.1
21 10.09 ЮЗ 13
{16}
21 км н/о +14.0 +12.2 89 +11 +11 1018.9 1007.4
22 10.09 ЮЗ 14
{17}
18 км н/о +14.3 +12.9 91 +11 +11 1018.4 1006.9
23 10.09 ЮЗ 15
{19}
13 км н/о +14.4 +13.6 95 +11 +11 1017.3 1005.9
00 11.09 ЮЗ 15
{20}
9000 м н/о +14.5 +14.4 99 +11 +11 1016.5 1005.1
01 11.09 ЮЗ 16-22
{22}
13 км н/о +14.9 +14.7 99 +12 +12 1016.2 1004.9
02 11.09 ЮЗ 12
{22}
1900 м н/о +14.9 +14.9 100 +12 +12 1015.9 1004.6
03 11.09 ЮЗ 14
{21}
9000 м н/о +15.0 +15.0 100 +12 +12 1015.4 1004.1
04 11.09 ЮЗ 16
{21}
6000 м н/о +14.9 +14.9 100 +11 +11 1014.3 1003.0
05 11.09 ЮЗ 15-20
{22}
12 км н/о +15.1 +14.9 99 +12 +12 1014.5 1003.2
06 11.09 ЮЗ 13
{19}
9000 м н/о +15.0 +15.0 100 +12 +12 1014.5 1003.2 +13.0 0.2
07 11.09 ЮЗ 13
{19}
9000 м н/о +15.1 +15.0 99 +12 +12 1015.3 1004.0
08 11.09 ЮЗ 12
{18}
7000 м н/о +15.3 +15.2 99 +13 +13 1016.0 1004.6
09 11.09 З 9
{15}
17 км н/о +15.9 +15.4 97 +14 +14 1016.9 1005.5
10 11.09 З 9
{13}
25 км н/о +16.3 +13.2 82 +15 +15 1017.8 1006.5
11 11.09 З 7 23 км н/о +17.0 +13.8 81 +16 +16 1018.3 1007.0
12 11.09 З 7 30 км н/о +17.4 +13.1 76 +16 +16 1018.9 1007.6 0.2
13 11.09 З 5 30 км н/о +17.7 +13.4 76 +17 +17 1019.5 1008.2
14 11.09 ЮЗ 5 29 км н/о +16.9 +12.9 77 +16 +16 1020.2 1008.9
15 11.09 ЮЗ 6 30 км н/о +16.3 +12.0 76 +15 +15 1020.4 1009.1
16 11.09 ЮЗ 5 29 км н/о +17.3 +12.6 74 +17 +17 1020.8 1009.4
17 11.09 ЮЗ 4 24 км н/о +16.5 +13.8 84 +16 +16 1021.0 1009.7
18 11.09 ЮЗ 5 17 км н/о +15.3 +13.3 88 +14 +14 1021.5 1010.1 +18.2 0.2
19 11.09 ЮЗ 6 26 км н/о +15.0 +12.3 84 +13 +13 1021.9 1010.5
20 11.09 ЮЗ 5 23 км н/о +14.4 +12.6 89 +13 +13 1022.7 1011.2
21 11.09 ЮЗ 6 25 км н/о +14.4 +12.6 89 +13 +13 1023.0 1011.5
22 11.09 ЮЗ 7 29 км н/о +14.7 +12.4 86 +13 +13 1023.0 1011.5
23 11.09 ЮЗ 6 35 км н/о +14.6 +11.9 84 +13 +13 1023.4 1011.9
00 12.09 ЮЗ 4 26 км н/о +14.1 +12.7 91 +13 +13 1023.5 1012.0
01 12.09 ЮЗ 4 30 км н/о +14.4 +12.8 90 +13 +13 1023.9 1012.4
02 12.09 ЮЗ 5 35 км н/о +14.0 +11.3 84 +12 +12 1023.7 1012.2
03 12.09 Ю 6 9000 м н/о +14.5 +14.2 98 +12 +12 1023.3 1011.8
04 12.09 ЮЗ 9 15 км н/о +14.3 +13.8 97 +12 +12 1023.2 1011.8
05 12.09 ЮЗ 10 11 км н/о +14.7 +14.4 98 +12 +12 1023.2 1011.7
06 12.09 ЮЗ 11
{14}
700 м н/о +14.9 +14.9 100 +12 +12 1023.3 1011.9 +13.7
07 12.09 ЮЗ 11
{15}
23 км н/о +14.9 +14.9 100 +12 +12 1023.5 1012.0
08 12.09 ЮЗ 12
{16}
10 км н/о +15.2 +15.2 100 +12 +12 1023.6 1012.1
09 12.09 ЮЗ 13
{16}
6000 м н/о +15.3 +15.3 100 +12 +12 1023.9 1012.4
10 12.09 ЮЗ 14
{17}
600 м н/о +15.4 +15.4 100 +13 +13 1023.8 1012.3
11 12.09 ЮЗ 14
{21}
14 км н/о +15.8 +15.1 96 +13 +13 1024.0 1012.6
12 12.09 ЮЗ 14
{19}
11 км н/о +15.8 +14.8 94 +13 +13 1024.1 1012.7
13 12.09 ЮЗ 15
{19}
8000 м н/о +15.5 +15.1 97 +13 +13 1024.2 1012.7
14 12.09 ЮЗ 14
{19}
8000 м н/о +15.5 +15.4 99 +13 +13 1024.4 1013.0
15 12.09 ЮЗ 12
{19}
1300 м н/о +15.5 +15.5 100 +13 +13 1024.6 1013.2
16 12.09 ЮЗ 11
{19}
300 м н/о +15.5 +15.5 100 +13 +13 1024.9 1013.5
17 12.09 ЮЗ 10
{16}
100 м н/о +15.1 +15.1 100 +13 +13 1025.9 1014.4
18 12.09 С 6
{14}
16 км н/о +14.5 +14.5 100 +12 +12 1027.2 1015.7 +16.4 0.8
19 12.09 С 7 3600 м н/о +13.9 +13.9 100 +11 +11 1028.6 1017.0
20 12.09 С 7
{13}
35 км н/о +13.3 +12.8 97 +11 +11 1029.8 1018.2
21 12.09 С 6 40 км н/о +13.2 +11.7 91 +11 +11 1030.8 1019.2
22 12.09 С 5 35 км н/о +12.9 +11.7 92 +11 +11 1031.5 1019.8
23 12.09 С 6 35 км н/о +13.0 +11.4 90 +10 +10 1032.0 1020.4
00 13.09 СЗ 7 40 км н/о +12.5 +10.4 87 +10 +10 1032.7 1021.1 0.4
01 13.09 С 8 35 км н/о +12.3 +10.2 87 +9 +9 1033.4 1021.7
02 13.09 С 7 35 км н/о +12.1 +9.8 86 +9 +9 1033.8 1022.1
03 13.09 С 6 35 км н/о +11.5 +8.9 84 +9 +9 1034.3 1022.6
04 13.09 С 6 35 км н/о +11.6 +8.9 83 +9 +9 1034.6 1022.9
05 13.09 С 5 35 км н/о +11.4 +9.2 86 +9 +9 1035.2 1023.4
06 13.09 С 4 35 км н/о +11.0 +8.8 86 +9 +9 1036.0 1024.3 +11.0 0.4
07 13.09 С 4 30 км н/о +12.2 +10.2 88 +10 +10 1036.6 1024.9
08 13.09 С 4 35 км н/о +13.1 +10.7 85 +11 +11 1037.3 1025.6
09 13.09 С 4 35 км н/о +14.1 +11.0 82 +13 +13 1037.9 1026.2
10 13.09 С 4 30 км н/о +14.1 +10.4 78 +13 +13 1038.0 1026.4
11 13.09 С 3 30 км н/о +14.6 +11.0 79 +14 +14 1038.0 1026.4
12 13.09 СЗ 5 30 км н/о +15.1 +11.4 79 +14 +14 1038.1 1026.5
13 13.09 С 5 35 км н/о +14.7 +10.4 75 +13 +13 1038.0 1026.4
14 13.09 С 5 30 км н/о +15.4 +10.8 74 +14 +14 1038.0 1026.4
15 13.09 С 5 35 км н/о +14.8 +10.0 73 +13 +13 1037.9 1026.3
16 13.09 С 5 35 км н/о +14.1 +9.9 76 +13 +13 1037.5 1025.9
17 13.09 С 4 30 км н/о +13.8 +9.5 75 +12 +12 1037.3 1025.6
18 13.09 С 4 35 км н/о +12.8 +8.8 77 +11 +11 1037.6 1025.9 +15.6
19 13.09 С 5 40 км н/о +11.4 +8.5 82 +9 +9 1037.4 1025.6
20 13.09 СВ 5 35 км н/о +9.8 +8.2 90 +7 +7 1037.6 1025.8
21 13.09 СВ 3 35 км н/о +10.1 +8.3 89 +8 +8 1037.4 1025.6
22 13.09 СВ 3 40 км н/о +10.3 +8.0 86 +8 +8 1037.5 1025.7
23 13.09 В 3 40 км н/о +11.6 +8.8 83 +10 +10 1037.1 1025.3
00 14.09 В 3 35 км н/о +11.4 +9.4 88 +9 +9 1036.8 1025.1
01 14.09 В 3 35 км н/о +11.8 +10.2 90 +10 +10 1036.5 1024.8
02 14.09 ЮВ 4 40 км н/о +12.0 +10.0 88 +10 +10 1036.2 1024.4
03 14.09 В 3 35 км н/о +11.7 +10.4 92 +10 +10 1035.2 1023.5
04 14.09 ЮВ 5 40 км н/о +13.1 +9.5 79 +11 +11 1035.0 1023.3
05 14.09 ЮВ 5 40 км н/о +13.0 +9.5 79 +11 +11 1034.4 1022.7
06 14.09 ЮВ 5 40 км н/о +12.8 +10.4 85 +11 +11 1033.6 1021.9 +9.5
07 14.09 Ю 6 40 км н/о +13.4 +10.9 85 +11 +11 1033.7 1022.1
08 14.09 Ю 6 40 км н/о +14.2 +10.8 80 +12 +12 1033.6 1022.0
09 14.09 Ю 8 40 км н/о +14.6 +9.9 73 +12 +12 1033.5 1021.9
10 14.09 Ю 6 35 км н/о +15.0 +10.7 75 +13 +13 1033.6 1022.0
11 14.09 Ю 7 30 км н/о +16.1 +12.3 78 +15 +15 1033.1 1021.6
12 14.09 ЮЗ 7 27 км н/о +16.3 +13.3 82 +15 +15 1032.6 1021.1
13 14.09 ЮЗ 8 28 км н/о +15.5 +12.8 84 +14 +14 1032.0 1020.5
14 14.09 ЮЗ 8 30 км н/о +16.9 +13.0 78 +16 +16 1030.9 1019.4
15 14.09 ЮЗ 7 30 км н/о +16.5 +12.8 79 +15 +15 1030.4 1019.0
16 14.09 ЮЗ 7 30 км н/о +16.3 +13.5 83 +15 +15 1029.7 1018.2
17 14.09 Ю 7 30 км н/о +15.5 +13.6 88 +14 +14 1028.9 1017.4
18 14.09 ЮЗ 8 26 км н/о +14.5 +12.7 89 +12 +12 1028.8 1017.3 +17.1
19 14.09 ЮЗ 9 22 км н/о +14.2 +12.8 91 +12 +12 1028.7 1017.2
20 14.09 ЮЗ 11
{13}
21 км н/о +14.0 +12.9 93 +11 +11 1028.5 1017.0
21 14.09 ЮЗ 9
{13}
16 км н/о +13.9 +13.0 94 +11 +11 1028.4 1016.9
22 14.09 ЮЗ 8 22 км н/о +13.9 +12.7 92 +11 +11 1028.2 1016.6
23 14.09 ЮЗ 7 22 км н/о +13.8 +12.9 94 +11 +11 1027.5 1016.0
00 15.09 ЮЗ 9 20 км н/о +13.9 +13.3 96 +11 +11 1027.2 1015.6
01 15.09 ЮЗ 6 16 км н/о +14.1 +13.6 97 +12 +12 1026.9 1015.3
02 15.09 ЮЗ 5 25 км н/о +14.5 +13.0 91 +13 +13 1026.2 1014.7
03 15.09 ЮЗ 9 19 км н/о +14.6 +13.6 94 +12 +12 1025.7 1014.3
04 15.09 З 7 19 км н/о +14.6 +13.8 95 +12 +12 1025.4 1013.9
05 15.09 ЮЗ 5 19 км н/о +14.5 +13.9 96 +13 +13 1025.3 1013.8
06 15.09 З 6 30 км н/о +14.7 +13.8 94 +13 +13 1025.2 1013.7 +13.7
07 15.09 З 6 29 км н/о +14.7 +14.1 96 +13 +13 1025.4 1013.9
08 15.09 ЮЗ 6 22 км н/о +15.0 +14.4 96 +13 +13 1025.7 1014.2
09 15.09 ЮЗ 6 22 км н/о +15.3 +14.6 96 +14 +14 1025.9 1014.4
10 15.09 З 5 30 км н/о +15.8 +15.1 96 +15 +15 1025.8 1014.4
11 15.09 З 6 30 км н/о +16.7 +15.0 90 +16 +16 1025.6 1014.2
12 15.09 З 6 35 км н/о +16.6 +15.0 90 +15 +15 1025.7 1014.3
13 15.09 З 6 30 км н/о +16.2 +14.6 90 +15 +15 1025.4 1014.0
14 15.09 ЮЗ 6 35 км н/о +16.3 +14.9 91 +15 +15 1025.0 1013.6
15 15.09 ЮЗ 8 40 км н/о +16.2 +14.4 89 +15 +15 1024.3 1012.9
17 15.09 ЮЗ 8 30 км н/о +15.4 +14.2 93 +13 +13 1023.5 1012.1
18 15.09 ЮЗ 9 26 км н/о +15.0 +14.2 95 +13 +13 1023.2 1011.7 +17.6
19 15.09 ЮЗ 7 19 км н/о +14.8 +14.4 97 +13 +13 1023.4 1012.0

 

Местоположение метеостанции Абердарон (Великобритания): широта 52.78 долгота -4.73 высота над уровнем моря 94 м.

В архиве по умолчанию представлена погода в Абердароне за последнюю неделю. Архивные данные за месяц целиком и за предыдущие месяцы, начиная с января 2011 года, Вы можете получить, выбрав интересующий диапазон дат из раскрывающегося списка и нажав кнопку "Ввод!".


*Определитесь, кто Вы:
робот инопланетянин человек

Внимание! Время в таблицах - всемирное. Для получения местного времени необходимо прибавить поправку, которая равна 0 ч.

Смотрите также архив погоды в соседних городах и на ближайших метеорологических станциях:

Погода в Вэлли (Великобритания) (54 км)
Погода в Моне (Великобритания) (58 км)
Погода в Кейпл Кериг (Великобритания) (64 км)
Погода в Троскоеде (Великобритания) (71 км)
Погода в Аберпорте (Великобритания) (73 км)
Погода в Бала (Великобритания) (79 км)
Погода на Озере Вирнви (Великобритания) (85 км)
Погода в Риле (Великобритания) (98 км)
Погода в Сеннибридже (Великобритания) (109 км)
Погода в Пембри Сэндс (Великобритания) (120 км)

Пояснения к столбцам:

Ветер - указаны скорость ветра в м/с - средняя за 10 мин, порывы в срок и между сроками (в фигурных скобках) и направление, откуда дует ветер: С - северный, СВ - северо-восточный, В - восточный, ЮВ - юго-восточный, Ю - южный, ЮЗ - юго-западный, З - западный, СЗ - северо-западный.
Видимость - горизонтальная дальность видимости в метрах или километрах. При видимости от 1 до 10 км при отсутствии осадков обычно наблюдается дымка, при ухудшении видимости до 1 км и менее - туман. В сухую погоду видимость может ухудшаться дымом, пылью или мглою.
Явления - указаны атмосферные явления, наблюдавшиеся в срок или в последний час перед сроком; фигурными скобками обозначены явления, наблюдавшиеся между сроками (за 1-3 часа до срока); квадратными скобками обозначены град или гололедные отложения с указанием их диаметра в мм.
Облачность - указаны через наклонную черту общая и нижняя облачность в баллах и высота нижней границы облаков в метрах; квадратными скобками обозначены формы облаков: Ci - перистые, Cs - перисто-слоистые, Cc - перисто-кучевые, Ac - высококучевые, As - высокослоистые, Sc - слоисто-кучевые, Ns - слоисто-дождевые, Cu - кучевые, Cb - кучево-дождевые. Подробнее классификацию облаков см. в Атласе облаков (PDF).
T - Температура воздуха - температура, измеренная на высоте 2 м над землей.
Td - Температура точки росы - температура, при понижении до которой содержащийся в воздухе водяной пар достигнет насыщения.
f - Относительная влажность воздуха - влажноcть воздуха, измеренная на высоте 2 м над землей.
Te - Эффективная температура - температура, которую ощущает одетый по сезону человек в тени. Характеристика душности погоды. При расчете учитывается влияние влажности воздуха и скорости ветра на теплоощущения человека.
Tes - Эффективная температура на солнце - температура, которую ощущает человек, с поправкой на солнечный нагрев. Характеристика знойности погоды. Зависит от высоты солнца над горизонтом, облачности и скорости ветра. Ночью, в пасмурную погоду, а также при ветре 12 м/с и более поправка равна нулю.
P - Атмосферное давление - приведенное к уровню моря атмосферное давление.
Po - Атмосферное давление - измеренное на уровне метеостанции атмосферное давление.
Tmin - Минимальная температура - минимум температуры воздуха на высоте 2 м над землей.
Tmax - Максимальная температура - максимум температуры воздуха на высоте 2 м над землей.
R - Количество осадков - Количество выпавших осадков за период времени, мм. При наведении курсора мыши на число - период времени, за который выпало указанное количество осадков.
R24 - Количество осадков - Количество выпавших осадков за 24 часа, мм.
S - Снежный покров - Высота снежного покрова, см. При наведении курсора мыши на число - состояние снежного покрова и степень покрытия местности в баллах.